Weather History for KUNV - December, 2012

Change the Weather History Date:

Monday, December 3, 2012

  Actual Average Record
Temperature  
Mean Temperature 55 °F -  
Max Temperature 60 °F 41 °F 64 °F (1998)
Min Temperature 50 °F 25 °F 1 °F (1976)
Degree Days  
Heating Degree Days 10    
Growing Degree Days 5 (Base 50)    
Moisture  
Dew Point 50 °F    
Average Humidity 87    
Maximum Humidity 100    
Minimum Humidity 72    
Precipitation  
Precipitation 0.03 in - - ()
Sea Level Pressure  
Sea Level Pressure 30.17 in    
Wind  
Wind Speed 3 mph (SW)    
Max Wind Speed 12 mph    
Max Gust Speed -    
Visibility 7 miles    
Events Rain    
Averages and records for this station are not official NWS values.
T = Trace of Precipitation, MM = Missing Value Source: NWS Daily Summary

Daily Weather History Graph

Daily Weather History Graph

Search for Another Location

Airport or City:

Trip Planner

Search our weather history database for the weather conditions in past years. The results will help you decide how hot, cold, wet, or windy it might be!

Date:

Astronomy

Dec. 03, 2012 Rise Set
Actual Time 7:18 AM EST 4:43 PM EST
Civil Twilight 6:48 AM EST 5:14 PM EST
Nautical Twilight 6:14 AM EST 5:48 PM EST
Astronomical Twilight 5:40 AM EST 6:21 PM EST
Moon 9:29 PM EST (12/3) 10:40 AM EST (12/3)
Length of Visible Light 10h 26m
Length of Day
9h 24m
Waning Gibbous, 78% of the Moon is Illuminated
Dec 3
Waning Gibbous
Dec 6
Last Quarter
Dec 13
New
Dec 20
First Quarter
Dec 28
Full

Hourly Weather History & Observations

Time (EST) Temp. Dew Point Humidity Pressure Visibility Wind Dir Wind Speed Gust Speed Precip Events Conditions
12:15 AM 50.9 °F 49.6 °F 95% 30.12 in 3.0 mi Calm Calm - N/A   Overcast
12:35 AM 50.5 °F 49.5 °F 96% 30.12 in 2.0 mi SSW 3.5 mph - N/A   Overcast
12:55 AM 50.9 °F 49.8 °F 96% 30.12 in 3.0 mi SSW 4.6 mph - N/A   Overcast
1:15 AM 51.3 °F 50.2 °F 96% 30.13 in 4.0 mi SSW 3.5 mph - N/A   Overcast
1:35 AM 51.3 °F 50.2 °F 96% 30.13 in 4.0 mi Calm Calm - N/A   Overcast
1:55 AM 50.9 °F 50.0 °F 97% 30.14 in 1.2 mi South 3.5 mph - N/A   Overcast
2:15 AM 50.9 °F 49.6 °F 95% 30.14 in 2.0 mi Calm Calm - N/A   Overcast
2:35 AM 50.9 °F 50.0 °F 97% 30.15 in 2.5 mi Calm Calm - N/A   Overcast
2:55 AM 51.3 °F 50.2 °F 96% 30.15 in 3.0 mi SW 3.5 mph - N/A   Overcast
3:15 AM 51.8 °F 50.9 °F 97% 30.16 in 5.0 mi WSW 4.6 mph - N/A   Overcast
3:35 AM 52.0 °F 50.9 °F 96% 30.16 in 4.0 mi West 3.5 mph - N/A   Overcast
3:55 AM 51.6 °F 50.4 °F 95% 30.16 in 3.0 mi SW 4.6 mph - N/A   Overcast
4:15 AM 51.8 °F 50.5 °F 95% 30.15 in 3.0 mi SSW 3.5 mph - N/A   Overcast
4:35 AM 51.4 °F 50.4 °F 96% 30.16 in 3.0 mi SW 3.5 mph - N/A   Overcast
5:53 AM 50.0 °F 48.2 °F 94% 30.18 in 6.0 mi SW 4.6 mph - N/A   Scattered Clouds
6:53 AM 50.0 °F 48.2 °F 94% 30.20 in 6.0 mi Calm Calm - N/A   Scattered Clouds
7:55 AM 50.0 °F 48.2 °F 94% 30.21 in 10.0 mi Calm Calm - N/A   Scattered Clouds
8:55 AM 50.0 °F 50.0 °F 100% 30.22 in 10.0 mi Calm Calm - N/A   Partly Cloudy
10:53 AM 57.2 °F 51.8 °F 82% 30.23 in 10.0 mi SSW 11.5 mph - N/A   Overcast
11:53 AM 57.2 °F 50.0 °F 77% 30.20 in 10.0 mi SSW 5.8 mph - N/A   Overcast
12:53 PM 60.8 °F 51.8 °F 72% 30.19 in 10.0 mi SSW 5.8 mph - N/A   Overcast
2:53 PM 59.0 °F 50.0 °F 72% 30.18 in 10.0 mi SSW 5.8 mph - N/A   Overcast
3:53 PM 59.0 °F 50.0 °F 72% 30.18 in 10.0 mi SW 5.8 mph - N/A   Overcast
4:53 PM 53.6 °F 50.0 °F 88% 30.18 in 10.0 mi Calm Calm - N/A   Overcast
5:53 PM 57.2 °F 50.0 °F 77% 30.19 in 10.0 mi Calm Calm - N/A   Overcast
7:53 PM 57.2 °F 50.0 °F 77% 30.20 in 10.0 mi WSW 4.6 mph - N/A   Overcast
8:15 PM 57.4 °F 50.4 °F 77% 30.19 in 10.0 mi SSW 3.5 mph - N/A   Overcast
8:35 PM 57.2 °F 50.4 °F 78% 30.19 in 10.0 mi Calm Calm - N/A   Overcast
8:53 PM 57.2 °F 50.0 °F 77% 30.18 in 10.0 mi Calm Calm - N/A   Overcast
8:55 PM 57.0 °F 50.5 °F 79% 30.18 in 10.0 mi Calm Calm - N/A   Overcast
9:15 PM 56.3 °F 50.5 °F 81% 30.19 in 10.0 mi SW 3.5 mph - N/A   Overcast
9:35 PM 57.0 °F 50.9 °F 80% 30.19 in 10.0 mi SW 4.6 mph - N/A   Overcast
9:55 PM 57.2 °F 51.1 °F 80% 30.19 in 10.0 mi SW 3.5 mph - N/A   Overcast
10:15 PM 57.2 °F 50.9 °F 79% 30.19 in 10.0 mi SSW 4.6 mph - N/A   Overcast
10:35 PM 57.6 °F 51.3 °F 79% 30.18 in 10.0 mi SSW 4.6 mph - N/A   Overcast
10:55 PM 57.6 °F 51.8 °F 81% 30.19 in 10.0 mi SSW 4.6 mph - N/A Rain Rain
11:15 PM 56.1 °F 52.9 °F 89% 30.19 in 7.0 mi SW 3.5 mph - 0.03 in Rain Light Rain
11:55 PM 55.9 °F 52.9 °F 89% 30.18 in 10.0 mi Calm Calm - N/A   Overcast